{"data":{"norad_id":45374,"epoch":"2026-05-25T01:12:53.302752Z","epoch_age_seconds":64487,"freshness":"FRESH","line1":"1 45374U 20019Q   26145.05061693  .00031267  00000+0  94505-3 0  9997","line2":"2 45374  53.1585 169.9458 0004695  38.6916 321.4422 15.33974906341453","mean_motion":15.33974906,"eccentricity":0.0004695,"inclination_deg":53.1585,"raan_deg":169.9458,"arg_perigee_deg":38.6916,"mean_anomaly_deg":321.4422,"bstar":0.00094505,"rev_number":34145,"period_min":93.873765103169,"perigee_km":460.75463309851,"apogee_km":467.17936875538,"semimajor_km":6842.1040009269,"source":"CELESTRAK","updated_at":"2026-05-25T13:38:16.387887Z"}}